Weatherford, Texas, United States (76085)
Lat: 32.76N, Lon: 97.8W
Wx Zone: TXZ117
Local Info
Past Weather Observations for Yesterday

NOTE: This archive is for the closest National Weather Service station to Weatherford. Information may differ from the station used for current weather conditions.

Time Weather Temperature Dewpoint Humidity Pressure Winds Precip Visibility
23:53
Overcast
55°F / 13°C 54°F / 12°C 94% 30.21 in
(1023 mb)
SE 4.6 mph
(SE 7 kph)
0.00 in
(0.00 mm)
7SM
23:27
Overcast
55°F / 13°C 54°F / 12°C 94% 30.21 in
(1023 mb)
SE 6.9 mph
(SE 11 kph)
0.00 in
(0.00 mm)
7SM
23:11
Overcast
Light Rain
55°F / 13°C 54°F / 12°C 94% 30.21 in
(1023 mb)
SE 6.9 mph
(SE 11 kph)
0.00 in
(0.00 mm)
6SM
22:53
Overcast
Light Rain
55°F / 13°C 54°F / 12°C 94% 30.21 in
(1023 mb)
E 6.9 mph
(E 11 kph)
0.03 in
(0.76 mm)
5SM
22:51
Overcast
Light Rain
55°F / 13°C 54°F / 12°C 94% 30.21 in
(1023 mb)
E 6.9 mph
(E 11 kph)
0.03 in
(0.76 mm)
5SM
22:41
Overcast
Rain
55°F / 13°C 54°F / 12°C 94% 30.21 in
(1023 mb)
E 6.9 mph
(E 11 kph)
0.03 in
(0.76 mm)
2 1/2SM
21:53
Overcast
Light Rain
55°F / 13°C 54°F / 12°C 94% 30.18 in
(1022 mb)
E 6.9 mph
(E 11 kph)
0.00 in
(0.00 mm)
8SM
20:53
Overcast
Fog And Mist
57°F / 14°C 55°F / 13°C 94% 30.18 in
(1022 mb)
E 6.9 mph
(E 11 kph)
0.01 in
(0.25 mm)
3SM
20:40
Overcast
Fog And Mist
57°F / 14°C 55°F / 13°C 94% 30.18 in
(1022 mb)
E 8.1 mph
(E 13 kph)
0.01 in
(0.25 mm)
3SM
20:29
Overcast
Fog And Mist
57°F / 14°C 55°F / 13°C 94% 30.18 in
(1022 mb)
E 8.1 mph
(E 13 kph)
0.01 in
(0.25 mm)
2 1/2SM
20:10
Overcast
Fog And Mist
57°F / 14°C 55°F / 13°C 94% 30.15 in
(1021 mb)
ENE 5.8 mph
(ENE 9 kph)
0.01 in
(0.25 mm)
3SM
19:53
Overcast
Fog And Mist
57°F / 14°C 55°F / 13°C 94% 30.15 in
(1021 mb)
ENE 6.9 mph
(ENE 11 kph)
0.00 in
(0.00 mm)
2 1/2SM
19:43
Overcast
Light Rain
57°F / 14°C 55°F / 13°C 94% 30.15 in
(1021 mb)
ENE 5.8 mph
(ENE 9 kph)
0.00 in
(0.00 mm)
3SM
19:06
Overcast
Fog And Mist
57°F / 14°C 55°F / 13°C 94% 30.12 in
(1020 mb)
E 6.9 mph
(E 11 kph)
0.00 in
(0.00 mm)
2 1/2SM
18:53
Overcast
Light Rain
57°F / 14°C 55°F / 13°C 94% 30.12 in
(1020 mb)
E 5.8 mph
(E 9 kph)
0.00 in
(0.00 mm)
1 1/2SM
18:43
Overcast
Fog And Mist
57°F / 14°C 55°F / 13°C 94% 30.12 in
(1020 mb)
ESE 8.1 mph
(ESE 13 kph)
- 1 3/4SM
18:30
Overcast
Fog And Mist
57°F / 14°C 55°F / 13°C 94% 30.12 in
(1020 mb)
E 9.2 mph
(E 15 kph)
- 2 1/2SM
18:18
Overcast
Fog And Mist
57°F / 14°C 57°F / 14°C 100% 30.12 in
(1020 mb)
E 8.1 mph
(E 13 kph)
- 3SM
18:00
Overcast
Fog And Mist
57°F / 14°C 57°F / 14°C 100% 30.12 in
(1020 mb)
ESE 6.9 mph
(ESE 11 kph)
- 3SM
17:53
Overcast
Fog And Mist
57°F / 14°C 55°F / 13°C 94% 30.12 in
(1020 mb)
ESE 6.9 mph
(ESE 11 kph)
0.01 in
(0.25 mm)
3SM
17:44
Overcast
Fog And Mist
57°F / 14°C 57°F / 14°C 100% 30.12 in
(1020 mb)
E 9.2 mph
(E 15 kph)
0.01 in
(0.25 mm)
3SM
17:38
Overcast
Light Rain
57°F / 14°C 57°F / 14°C 100% 30.12 in
(1020 mb)
E 9.2 mph
(E 15 kph)
0.01 in
(0.25 mm)
2SM
17:31
Overcast
Fog And Mist
57°F / 14°C 57°F / 14°C 100% 30.12 in
(1020 mb)
ESE 8.1 mph
(ESE 13 kph)
0.01 in
(0.25 mm)
2 1/2SM
17:23
Overcast
Fog And Mist
57°F / 14°C 57°F / 14°C 100% 30.12 in
(1020 mb)
ESE 5.8 mph
(ESE 9 kph)
0.01 in
(0.25 mm)
3SM
17:07
Overcast
Fog And Mist
57°F / 14°C 57°F / 14°C 100% 30.12 in
(1020 mb)
ESE 6.9 mph
(ESE 11 kph)
0.01 in
(0.25 mm)
3SM
16:53
Overcast
Light Rain
59°F / 15°C 57°F / 14°C 94% 30.12 in
(1020 mb)
E 6.9 mph
(E 11 kph)
0.00 in
(0.00 mm)
2 1/2SM
16:32
Overcast
Light Rain
59°F / 15°C 57°F / 14°C 94% 30.12 in
(1020 mb)
E 5.8 mph
(E 9 kph)
0.00 in
(0.00 mm)
2 1/2SM
16:24
Overcast
Fog And Mist
57°F / 14°C 57°F / 14°C 100% 30.12 in
(1020 mb)
E 5.8 mph
(E 9 kph)
0.00 in
(0.00 mm)
3SM
15:53
Overcast
Light Rain
57°F / 14°C 57°F / 14°C 100% 30.12 in
(1020 mb)
E 8.1 mph
(E 13 kph)
0.03 in
(0.76 mm)
2SM
15:47
Overcast
Light Rain
57°F / 14°C 57°F / 14°C 100% 30.12 in
(1020 mb)
E 6.9 mph
(E 11 kph)
0.03 in
(0.76 mm)
2SM
15:28
Overcast
Light Rain
57°F / 14°C 57°F / 14°C 100% 30.12 in
(1020 mb)
E 5.8 mph
(E 9 kph)
0.02 in
(0.51 mm)
1 1/2SM
14:59
Overcast
Light Rain
59°F / 15°C 57°F / 14°C 94% 30.12 in
(1020 mb)
SE 5.8 mph
(SE 9 kph)
0.00 in
(0.00 mm)
1 3/4SM
14:53
Overcast
Light Rain
59°F / 15°C 57°F / 14°C 94% 30.12 in
(1020 mb)
SE 5.8 mph
(SE 9 kph)
0.01 in
(0.25 mm)
2SM
14:27
Overcast
Light Rain
59°F / 15°C 55°F / 13°C 88% 30.12 in
(1020 mb)
SE 5.8 mph
(SE 9 kph)
0.00 in
(0.00 mm)
2 1/2SM
13:53
Overcast
61°F / 16°C 55°F / 13°C 83% 30.12 in
(1020 mb)
SE 9.2 mph
(SE 15 kph)
- 8SM
12:53
Overcast
Fog And Mist
57°F / 14°C 55°F / 13°C 94% 30.12 in
(1020 mb)
SE 9.2 mph
(SE 15 kph)
0.00 in
(0.00 mm)
4SM
11:53
Overcast
61°F / 16°C 54°F / 12°C 77% 30.12 in
(1020 mb)
SSE 12.7 mph
(SSE 20 kph)
- 10SM
11:26
Overcast
61°F / 16°C 52°F / 11°C 72% 30.12 in
(1020 mb)
SE 11.5 mph
(SE 19 kph)
- 10SM
10:53
Overcast
61°F / 16°C 52°F / 11°C 72% 30.12 in
(1020 mb)
SE 12.7 mph
(SE 20 kph)
- 10SM
09:53
Overcast
61°F / 16°C 52°F / 11°C 72% 30.12 in
(1020 mb)
SE 12.7 mph
(SE 20 kph)
- 10SM
09:13
Mostly Cloudy
59°F / 15°C 52°F / 11°C 77% 30.09 in
(1019 mb)
SE 15 mph
(SE 24 kph)
- 10SM
08:53
Mostly Cloudy
59°F / 15°C 52°F / 11°C 77% 30.09 in
(1019 mb)
SE 13.8 mph
(SE 22 kph)
- 10SM
08:09
Partly Cloudy
57°F / 14°C 50°F / 10°C 77% 30.09 in
(1019 mb)
SE 12.7 mph
(SE 20 kph)
- 10SM
07:53
Mostly Cloudy
55°F / 13°C 50°F / 10°C 82% 30.09 in
(1019 mb)
SE 10.4 mph
(SE 17 kph)
- 10SM
07:14
Partly Cloudy
54°F / 12°C 48°F / 9°C 82% 30.09 in
(1019 mb)
SSE 10.4 mph
(SSE 17 kph)
- 8SM
06:53
Mostly Cloudy
54°F / 12°C 48°F / 9°C 82% 30.09 in
(1019 mb)
SSE 9.2 mph
(SSE 15 kph)
- 8SM
06:30
Overcast
54°F / 12°C 48°F / 9°C 82% 30.06 in
(1018 mb)
SE 8.1 mph
(SE 13 kph)
- 8SM
05:53
Overcast
54°F / 12°C 48°F / 9°C 82% 30.06 in
(1018 mb)
SE 10.4 mph
(SE 17 kph)
- 10SM
05:29
Overcast
54°F / 12°C 48°F / 9°C 82% 30.06 in
(1018 mb)
SE 6.9 mph
(SE 11 kph)
- 10SM
05:04
Overcast
52°F / 11°C 48°F / 9°C 88% 30.04 in
(1017 mb)
SE 9.2 mph
(SE 15 kph)
- 10SM
04:53
Mostly Cloudy
52°F / 11°C 48°F / 9°C 88% 30.04 in
(1017 mb)
SE 10.4 mph
(SE 17 kph)
- 10SM
03:53
Clear
52°F / 11°C 46°F / 8°C 82% 30.04 in
(1017 mb)
SE 6.9 mph
(SE 11 kph)
- 10SM
02:53
Clear
52°F / 11°C 45°F / 7°C 77% 30.01 in
(1016 mb)
SE 16.1 mph
(SE 26 kph)
- 10SM
01:53
Clear
54°F / 12°C 45°F / 7°C 72% 30.01 in
(1016 mb)
SE 13.8 mph
(SE 22 kph)
- 10SM
00:53
Clear
54°F / 12°C 45°F / 7°C 72% 29.98 in
(1015 mb)
SE 13.8 mph
(SE 22 kph)
- 10SM
Time Weather Temperature Dewpoint Humidity Pressure Winds Precip Visibility


Weather for websites

WeatherForYou.com, LLC is not responsible for any damages or problems caused by this service. Current weather conditions are obtained from the closest station including government and personal stations which may have varying degrees of accuracy. Weather forecasts are derived from the NOAA NDFD. Like all things, this site belongs to Jesus Christ... He just trusts me to maintain it. If you have any questions or comments email webmaster@weatherforyou.com

Copyright © 2014, WeatherForYou.com LLC. All rights reserved.